• In France
  • List of Countries
  • For 7 days
  • Water Temperature
  • Satellite Maps
  • Weather Map
  • Weather Widgets
  • user-avatar
    Login

    Hourly Weather Neiva

    Today, 20 February, Tuesday

    Time Temperature Precipitation Wind Pressure Humidity
    00:00 +26°C° 0.1 mm 1 mps 720 mmHg 74%
    01:00 +26°C° 0 mm 1 mps 720 mmHg 75%
    02:00 +26°C° 0.2 mm 1 mps 720 mmHg 76%
    03:00 +26°C° 0.2 mm 1 mps 720 mmHg 76%
    04:00 +26°C° 0.2 mm 1 mps 720 mmHg 76%
    05:00 +26°C° 0.1 mm 1 mps 720 mmHg 76%
    06:00 +24°C° 0.1 mm 0 mps 720 mmHg 75%
    07:00 +24°C° 0 mm 0 mps 721 mmHg 74%
    08:00 +28°C° 0 mm 1 mps 721 mmHg 69%
    09:00 +29°C° 0 mm 1 mps 721 mmHg 63%
    10:00 +30°C° 0 mm 1 mps 722 mmHg 58%
    11:00 +31°C° 0.1 mm 2 mps 721 mmHg 56%
    12:00 +32°C° 0.1 mm 2 mps 721 mmHg 53%
    13:00 +34°C° 0.1 mm 2 mps 720 mmHg 51%
    14:00 +34°C° 0.3 mm 2 mps 720 mmHg 51%
    15:00 +34°C° 0.3 mm 2 mps 719 mmHg 51%
    16:00 +34°C° 0.3 mm 2 mps 719 mmHg 51%
    17:00 +31°C° 0.4 mm 1 mps 719 mmHg 57%
    18:00 +29°C° 0.4 mm 1 mps 719 mmHg 64%
    19:00 +25°C° 0.4 mm 0 mps 719 mmHg 70%
    20:00 +27°C° 0.2 mm 1 mps 720 mmHg 70%
    21:00 +27°C° 0.2 mm 1 mps 720 mmHg 71%
    22:00 +27°C° 0.2 mm 1 mps 721 mmHg 72%
    23:00 +26°C° 0.1 mm 1 mps 721 mmHg 72%

    Tomorrow, 21 February, Wednesday

    Time Temperature Precipitation Wind Pressure Humidity
    00:00 +26°C° 0.1 mm 1 mps 721 mmHg 73%
    01:00 +26°C° 0.1 mm 1 mps 721 mmHg 74%
    02:00 +25°C° 0 mm 1 mps 721 mmHg 74%
    03:00 +25°C° 0 mm 1 mps 720 mmHg 75%
    04:00 +25°C° 0 mm 1 mps 720 mmHg 75%
    05:00 +25°C° 0 mm 1 mps 721 mmHg 74%
    06:00 +25°C° 0 mm 1 mps 721 mmHg 74%
    07:00 +25°C° 0 mm 1 mps 721 mmHg 73%
    08:00 +28°C° 0 mm 1 mps 722 mmHg 65%
    09:00 +30°C° 0 mm 1 mps 722 mmHg 58%
    10:00 +32°C° 0 mm 1 mps 722 mmHg 50%
    11:00 +34°C° 0 mm 2 mps 721 mmHg 48%
    12:00 +35°C° 0 mm 2 mps 721 mmHg 45%
    13:00 +36°C° 0 mm 2 mps 720 mmHg 43%
    14:00 +36°C° 0.1 mm 2 mps 719 mmHg 43%
    15:00 +36°C° 0.1 mm 2 mps 719 mmHg 44%
    16:00 +35°C° 0.1 mm 2 mps 718 mmHg 44%
    17:00 +32°C° 0.2 mm 1 mps 718 mmHg 51%
    18:00 +30°C° 0.2 mm 1 mps 719 mmHg 58%
    19:00 +28°C° 0.2 mm 1 mps 719 mmHg 64%
    20:00 +27°C° 0.1 mm 1 mps 720 mmHg 66%
    21:00 +27°C° 0.1 mm 1 mps 721 mmHg 67%
    22:00 +27°C° 0.1 mm 1 mps 722 mmHg 69%
    23:00 +26°C° 0.1 mm 1 mps 722 mmHg 70%

    Day after tomorrow, 22 February, Thursday

    Time Temperature Precipitation Wind Pressure Humidity
    00:00 +26°C° 0.1 mm 1 mps 721 mmHg 70%
    01:00 +26°C° 0.1 mm 1 mps 721 mmHg 71%
    02:00 +25°C° 0 mm 1 mps 721 mmHg 73%
    03:00 +25°C° 0 mm 1 mps 721 mmHg 75%
    04:00 +24°C° 0 mm 1 mps 720 mmHg 76%
    05:00 +24°C° 0 mm 1 mps 721 mmHg 75%
    06:00 +25°C° 0 mm 1 mps 721 mmHg 74%
    07:00 +23°C° 0 mm 0 mps 722 mmHg 73%
    08:00 +27°C° 0 mm 1 mps 722 mmHg 66%
    09:00 +29°C° 0 mm 1 mps 722 mmHg 60%
    10:00 +31°C° 0 mm 2 mps 723 mmHg 53%
    11:00 +32°C° 0.1 mm 2 mps 722 mmHg 52%
    12:00 +34°C° 0.1 mm 2 mps 721 mmHg 50%
    13:00 +35°C° 0.1 mm 2 mps 720 mmHg 48%
    14:00 +34°C° 0.2 mm 2 mps 719 mmHg 48%
    15:00 +34°C° 0.2 mm 2 mps 719 mmHg 48%
    16:00 +34°C° 0.2 mm 2 mps 718 mmHg 48%
    17:00 +31°C° 0.2 mm 2 mps 718 mmHg 55%
    18:00 +29°C° 0.2 mm 1 mps 719 mmHg 62%
    19:00 +27°C° 0.2 mm 1 mps 719 mmHg 70%
    20:00 +26°C° 0.2 mm 1 mps 720 mmHg 72%
    21:00 +26°C° 0.2 mm 1 mps 720 mmHg 74%
    22:00 +25°C° 0.2 mm 1 mps 721 mmHg 76%
    23:00 +25°C° 0.2 mm 1 mps 721 mmHg 76%

    23 February, Friday

    Time Temperature Precipitation Wind Pressure Humidity
    00:00 +25°C° 0.2 mm 1 mps 721 mmHg 76%
    01:00 +24°C° 0.2 mm 1 mps 721 mmHg 77%
    02:00 +24°C° 0.2 mm 1 mps 721 mmHg 77%
    03:00 +24°C° 0.2 mm 1 mps 721 mmHg 77%
    04:00 +24°C° 0.2 mm 1 mps 720 mmHg 78%
    05:00 +24°C° 0 mm 1 mps 721 mmHg 77%
    06:00 +24°C° 0 mm 1 mps 721 mmHg 76%
    07:00 +24°C° 0 mm 1 mps 722 mmHg 75%
    08:00 +26°C° 0 mm 1 mps 722 mmHg 70%
    09:00 +28°C° 0 mm 1 mps 722 mmHg 64%
    10:00 +30°C° 0 mm 1 mps 722 mmHg 58%
    11:00 +31°C° 0.1 mm 2 mps 721 mmHg 55%
    12:00 +32°C° 0.1 mm 2 mps 720 mmHg 51%
    13:00 +34°C° 0.1 mm 2 mps 720 mmHg 47%
    14:00 +34°C° 0.2 mm 2 mps 719 mmHg 46%
    15:00 +34°C° 0.2 mm 2 mps 718 mmHg 46%
    16:00 +34°C° 0.2 mm 2 mps 717 mmHg 46%
    17:00 +31°C° 0.1 mm 2 mps 718 mmHg 53%
    18:00 +29°C° 0.1 mm 1 mps 718 mmHg 60%
    19:00 +27°C° 0.1 mm 1 mps 719 mmHg 68%
    20:00 +26°C° 0.1 mm 1 mps 719 mmHg 69%
    21:00 +26°C° 0.1 mm 1 mps 720 mmHg 71%
    22:00 +25°C° 0.1 mm 1 mps 721 mmHg 72%
    23:00 +25°C° 0.1 mm 1 mps 720 mmHg 73%

    24 February, Saturday

    Time Temperature Precipitation Wind Pressure Humidity
    00:00 +24°C° 0.1 mm 1 mps 720 mmHg 73%
    01:00 +24°C° 0.1 mm 1 mps 720 mmHg 74%
    02:00 +24°C° 0 mm 1 mps 720 mmHg 74%
    03:00 +24°C° 0 mm 1 mps 720 mmHg 74%
    04:00 +23°C° 0 mm 1 mps 719 mmHg 75%
    05:00 +24°C° 0 mm 1 mps 720 mmHg 74%
    06:00 +24°C° 0 mm 1 mps 720 mmHg 72%
    07:00 +24°C° 0 mm 1 mps 721 mmHg 71%
    08:00 +26°C° 0 mm 1 mps 721 mmHg 65%
    09:00 +28°C° 0 mm 1 mps 721 mmHg 59%
    10:00 +30°C° 0 mm 2 mps 721 mmHg 53%
    11:00 +32°C° 0 mm 2 mps 720 mmHg 49%
    12:00 +34°C° 0 mm 2 mps 720 mmHg 46%
    13:00 +35°C° 0 mm 2 mps 719 mmHg 42%
    14:00 +35°C° 0.2 mm 2 mps 718 mmHg 43%
    15:00 +34°C° 0.2 mm 2 mps 718 mmHg 43%
    16:00 +34°C° 0.2 mm 2 mps 717 mmHg 43%
    17:00 +31°C° 0.1 mm 1 mps 717 mmHg 50%
    18:00 +29°C° 0.1 mm 1 mps 718 mmHg 56%
    19:00 +27°C° 0.1 mm 1 mps 719 mmHg 63%
    20:00 +26°C° 0 mm 1 mps 719 mmHg 65%
    21:00 +26°C° 0 mm 1 mps 720 mmHg 67%
    22:00 +25°C° 0 mm 1 mps 721 mmHg 69%
    23:00 +24°C° 0.1 mm 1 mps 721 mmHg 70%

    25 February, Sunday

    Time Temperature Precipitation Wind Pressure Humidity
    00:00 +24°C° 0.1 mm 1 mps 720 mmHg 71%
    01:00 +24°C° 0.1 mm 1 mps 720 mmHg 72%
    02:00 +24°C° 0.1 mm 1 mps 720 mmHg 72%
    03:00 +23°C° 0.1 mm 1 mps 720 mmHg 73%
    04:00 +23°C° 0.1 mm 1 mps 720 mmHg 73%
    05:00 +24°C° 0 mm 1 mps 720 mmHg 73%
    06:00 +24°C° 0 mm 1 mps 721 mmHg 72%
    07:00 +24°C° 0 mm 1 mps 722 mmHg 72%
    08:00 +26°C° 0 mm 1 mps 722 mmHg 66%
    09:00 +28°C° 0 mm 1 mps 722 mmHg 59%
    10:00 +31°C° 0 mm 2 mps 722 mmHg 53%
    11:00 +31°C° 0 mm 2 mps 721 mmHg 50%
    12:00 +32°C° 0 mm 2 mps 720 mmHg 47%
    13:00 +34°C° 0 mm 2 mps 719 mmHg 44%
    14:00 +34°C° 0 mm 2 mps 719 mmHg 44%
    15:00 +34°C° 0 mm 2 mps 718 mmHg 43%
    16:00 +34°C° 0 mm 2 mps 717 mmHg 42%
    17:00 +31°C° 0.1 mm 2 mps 718 mmHg 49%
    18:00 +29°C° 0.1 mm 1 mps 719 mmHg 56%
    19:00 +27°C° 0.1 mm 1 mps 719 mmHg 63%
    20:00 +26°C° 0 mm 1 mps 720 mmHg 65%
    21:00 +25°C° 0 mm 1 mps 720 mmHg 68%
    22:00 +25°C° 0 mm 1 mps 721 mmHg 70%
    23:00 +24°C° 0.1 mm 1 mps 721 mmHg 71%
    Show more